This is the latest recevied weather packets stored in our database for station/object W7TTE. If no packets are shown the sender has not sent any weather packets the latest 10 day(s).
| Time | Temp. | Humidity | Pressure | Rain* | Wind** | Luminosity | Snow |
|---|---|---|---|---|---|---|---|
| 1777519844 | 25° C | 18% | 1013.6 hPa | 0 mm | - | 0 W/m² | - |
| 1777519541 | 25.56° C | 19% | 1013.4 hPa | 0 mm | - | 0 W/m² | - |
| 1777519237 | 25.56° C | 19% | 1013.3 hPa | 0 mm | - | 0 W/m² | - |
| 1777518933 | 25.56° C | 18% | 1013.6 hPa | 0 mm | - | 0 W/m² | - |
| 1777518629 | 25.56° C | 18% | 1013.3 hPa | 0 mm | - | 0 W/m² | - |
| 1777518326 | 25.56° C | 18% | 1013.1 hPa | 0 mm | - | 0 W/m² | - |
| 1777518022 | 26.11° C | 17% | 1013 hPa | 0 mm | - | 0 W/m² | - |
| 1777517719 | 26.11° C | 17% | 1012.9 hPa | 0 mm | - | 0 W/m² | - |
| 1777517415 | 26.67° C | 17% | 1013 hPa | 0 mm | - | 0 W/m² | - |
| 1777517114 | 26.67° C | 16% | 1013 hPa | 0 mm | - | 0 W/m² | - |
| 1777516811 | 27.22° C | 16% | 1012.7 hPa | 0 mm | - | 0 W/m² | - |
| 1777516507 | 27.22° C | 15% | 1012.6 hPa | 0 mm | - | 0 W/m² | - |
| 1777516202 | 27.22° C | 15% | 1012.5 hPa | 0 mm | - | 0 W/m² | - |
| 1777515900 | 27.22° C | 15% | 1012.6 hPa | 0 mm | - | 0 W/m² | - |
| 1777515596 | 27.78° C | 15% | 1012.8 hPa | 0 mm | - | 1 W/m² | - |
| 1777515294 | 27.78° C | 15% | 1012.5 hPa | 0 mm | - | 2 W/m² | - |
| 1777514989 | 27.78° C | 14% | 1012.5 hPa | 0 mm | - | 2 W/m² | - |
| 1777514686 | 28.33° C | 14% | 1012.3 hPa | 0 mm | - | 4 W/m² | - |
| 1777514383 | 28.33° C | 14% | 1012.4 hPa | 0 mm | - | 4 W/m² | - |
| 1777514081 | 28.33° C | 14% | 1012.4 hPa | 0 mm | - | 7 W/m² | - |
| 1777513777 | 28.89° C | 14% | 1012.4 hPa | 0 mm | - | 8 W/m² | - |
| 1777513475 | 28.89° C | 13% | 1012.4 hPa | 0 mm | - | 13 W/m² | - |
| 1777513171 | 28.89° C | 14% | 1012.1 hPa | 0 mm | - | 21 W/m² | - |
| 1777512867 | 28.89° C | 15% | 1012.3 hPa | 0 mm | - | 21 W/m² | - |
| 1777512564 | 28.89° C | 16% | 1012.3 hPa | 0 mm | - | 24 W/m² | - |
* Rain latest hour (hover to see other rain measurements)
** Current wind speed in m/s (hover to see current wind gust speed)